Time,TemperatureF,DewpointF,PressureIn,WindDirection,WindDirectionDegrees,WindSpeedMPH,WindSpeedGustMPH,Humidity,HourlyPrecipIn,Conditions,Clouds,dailyrainin,SoftwareType,DateUTC
2013-03-03 00:02:00,47.7,29.1,30.25,WSW,255,0.0,3.0,23,0.00,,,0.00,meteohub,2013-03-03 06:02:00,
2013-03-03 00:07:00,47.3,28.8,30.25,WSW,245,0.0,3.0,22,0.00,,,0.00,meteohub,2013-03-03 06:07:00,
2013-03-03 00:12:00,47.1,29.3,30.25,WSW,245,0.0,1.0,22,0.00,,,0.00,meteohub,2013-03-03 06:12:00,
2013-03-03 00:17:00,47.1,29.3,30.25,SW,215,0.0,1.0,22,0.00,,,0.00,meteohub,2013-03-03 06:17:00,
2013-03-03 00:22:00,46.9,28.4,30.25,SW,218,0.0,1.0,22,0.00,,,0.00,meteohub,2013-03-03 06:22:00,
2013-03-03 00:27:00,46.6,28.6,30.25,SW,218,0.0,1.0,23,0.00,,,0.00,meteohub,2013-03-03 06:27:00,
2013-03-03 00:32:00,46.4,28.6,30.25,SW,218,0.0,0.0,23,0.00,,,0.00,meteohub,2013-03-03 06:32:00,
2013-03-03 00:39:00,45.7,29.3,30.25,SW,218,0.0,0.0,23,0.00,,,0.00,meteohub,2013-03-03 06:39:00,
2013-03-03 00:45:00,45.7,28.9,30.25,SW,225,0.0,1.0,22,0.00,,,0.00,meteohub,2013-03-03 06:45:00,
2013-03-03 00:51:00,45.7,29.3,30.25,SW,225,0.0,1.0,22,0.00,,,0.00,meteohub,2013-03-03 06:51:00,
2013-03-03 00:57:00,46.2,28.4,30.25,WSW,239,1.0,2.0,22,0.00,,,0.00,meteohub,2013-03-03 06:57:00,
2013-03-03 01:02:00,46.8,28.6,30.25,WSW,248,0.0,3.0,23,0.00,,,0.00,meteohub,2013-03-03 07:02:00,
2013-03-03 01:07:00,46.6,28.6,30.25,WSW,247,0.0,3.0,23,0.00,,,0.00,meteohub,2013-03-03 07:07:00,
2013-03-03 01:12:00,46.4,29.1,30.25,SW,235,0.0,3.0,23,0.00,,,0.00,meteohub,2013-03-03 07:12:00,
2013-03-03 01:17:00,46.8,28.6,30.24,SW,235,0.0,2.0,22,0.00,,,0.00,meteohub,2013-03-03 07:17:00,
2013-03-03 01:22:00,46.6,29.3,30.25,SW,235,0.0,2.0,22,0.00,,,0.00,meteohub,2013-03-03 07:22:00,
2013-03-03 01:27:00,46.2,28.2,30.24,SW,235,0.0,2.0,21,0.00,,,0.00,meteohub,2013-03-03 07:27:00,
2013-03-03 01:32:00,46.2,28.4,30.24,SW,233,0.0,1.0,22,0.00,,,0.00,meteohub,2013-03-03 07:32:00,
2013-03-03 01:37:00,46.2,27.5,30.24,SW,222,1.0,1.0,22,0.00,,,0.00,meteohub,2013-03-03 07:37:00,
2013-03-03 01:42:00,46.8,28.6,30.24,WSW,240,3.0,3.0,23,0.00,,,0.00,meteohub,2013-03-03 07:42:00,
2013-03-03 01:47:00,47.1,28.9,30.24,WSW,249,2.0,3.0,23,0.00,,,0.00,meteohub,2013-03-03 07:47:00,
2013-03-03 01:52:00,47.5,28.4,30.24,WSW,240,4.0,4.0,22,0.00,,,0.00,meteohub,2013-03-03 07:52:00,
2013-03-03 01:57:00,47.7,29.1,30.23,WSW,249,4.0,4.0,22,0.00,,,0.00,meteohub,2013-03-03 07:57:00,
2013-03-03 02:02:00,47.8,28.4,30.23,SW,233,4.0,5.0,21,0.00,,,0.00,meteohub,2013-03-03 08:02:00,
2013-03-03 02:07:00,47.8,27.7,30.23,SW,217,0.0,5.0,21,0.00,,,0.00,meteohub,2013-03-03 08:07:00,
2013-03-03 02:12:00,47.3,27.7,30.23,South,172,0.0,5.0,22,0.00,,,0.00,meteohub,2013-03-03 08:12:00,
2013-03-03 02:17:00,46.8,28.6,30.23,South,183,0.0,4.0,23,0.00,,,0.00,meteohub,2013-03-03 08:17:00,
2013-03-03 02:22:00,46.4,28.8,30.22,South,183,0.0,2.0,23,0.00,,,0.00,meteohub,2013-03-03 08:22:00,
2013-03-03 02:27:00,46.0,28.4,30.23,SE,134,0.0,0.0,22,0.00,,,0.00,meteohub,2013-03-03 08:27:00,
2013-03-03 02:32:00,45.7,28.9,30.23,ENE,77,2.0,2.0,22,0.00,,,0.00,meteohub,2013-03-03 08:32:00,
2013-03-03 02:37:00,45.0,28.4,30.22,East,94,1.0,5.0,21,0.00,,,0.00,meteohub,2013-03-03 08:37:00,
2013-03-03 02:42:00,44.4,27.9,30.22,ENE,75,1.0,5.0,21,0.00,,,0.00,meteohub,2013-03-03 08:42:00,
2013-03-03 02:47:00,44.2,27.9,30.22,ENE,58,0.0,5.0,22,0.00,,,0.00,meteohub,2013-03-03 08:47:00,
2013-03-03 02:52:00,44.1,28.6,30.22,ENE,71,1.0,5.0,23,0.00,,,0.00,meteohub,2013-03-03 08:52:00,
2013-03-03 02:57:00,43.9,28.9,30.22,East,80,0.0,3.0,23,0.00,,,0.00,meteohub,2013-03-03 08:57:00,
2013-03-03 03:02:00,43.7,28.4,30.22,East,97,0.0,4.0,22,0.00,,,0.00,meteohub,2013-03-03 09:02:00,
2013-03-03 03:07:00,43.5,29.1,30.22,East,86,0.0,4.0,22,0.00,,,0.00,meteohub,2013-03-03 09:07:00,
2013-03-03 03:12:00,43.5,28.4,30.21,ENE,72,0.0,2.0,21,0.00,,,0.00,meteohub,2013-03-03 09:12:00,
2013-03-03 03:17:00,43.5,28.8,30.21,ENE,73,0.0,1.0,22,0.00,,,0.00,meteohub,2013-03-03 09:17:00,
2013-03-03 03:22:00,43.3,27.7,30.21,ENE,73,0.0,1.0,22,0.00,,,0.00,meteohub,2013-03-03 09:22:00,
2013-03-03 03:27:00,43.2,28.6,30.21,ENE,73,0.0,1.0,23,0.00,,,0.00,meteohub,2013-03-03 09:27:00,
2013-03-03 03:32:00,43.0,28.9,30.21,East,82,0.0,1.0,23,0.00,,,0.00,meteohub,2013-03-03 09:32:00,
2013-03-03 03:37:00,43.0,28.4,30.21,East,82,0.0,1.0,22,0.00,,,0.00,meteohub,2013-03-03 09:37:00,
2013-03-03 03:42:00,42.8,28.9,30.20,ESE,104,1.0,1.0,22,0.00,,,0.00,meteohub,2013-03-03 09:42:00,
2013-03-03 03:47:00,42.6,29.3,30.21,East,95,0.0,1.0,22,0.00,,,0.00,meteohub,2013-03-03 09:47:00,
2013-03-03 03:52:00,42.4,28.8,30.21,East,94,0.0,1.0,22,0.00,,,0.00,meteohub,2013-03-03 09:52:00,
2013-03-03 03:57:00,42.3,27.7,30.21,East,94,0.0,1.0,22,0.00,,,0.00,meteohub,2013-03-03 09:57:00,
2013-03-03 04:02:00,42.1,28.4,30.21,East,94,0.0,1.0,23,0.00,,,0.00,meteohub,2013-03-03 10:02:00,
2013-03-03 04:07:00,42.1,28.8,30.21,East,79,0.0,0.0,23,0.00,,,0.00,meteohub,2013-03-03 10:07:00,
2013-03-03 04:12:00,42.3,29.5,30.21,ENE,72,0.0,1.0,23,0.00,,,0.00,meteohub,2013-03-03 10:12:00,
2013-03-03 04:17:00,42.4,28.9,30.21,East,97,0.0,2.0,22,0.00,,,0.00,meteohub,2013-03-03 10:17:00,
2013-03-03 04:22:00,42.3,29.3,30.21,East,98,0.0,2.0,22,0.00,,,0.00,meteohub,2013-03-03 10:22:00,
2013-03-03 04:27:00,41.9,29.1,30.21,East,97,0.0,1.0,22,0.00,,,0.00,meteohub,2013-03-03 10:27:00,
2013-03-03 04:32:00,42.1,28.0,30.21,East,97,0.0,1.0,22,0.00,,,0.00,meteohub,2013-03-03 10:32:00,
2013-03-03 04:37:00,41.4,28.6,30.22,West,265,0.0,1.0,23,0.00,,,0.00,meteohub,2013-03-03 10:37:00,
2013-03-03 04:42:00,41.4,29.3,30.21,West,265,0.0,1.0,23,0.00,,,0.00,meteohub,2013-03-03 10:42:00,
2013-03-03 04:47:00,41.4,28.9,30.21,North,-999,-999.0,1.0,22,0.00,,,0.00,meteohub,2013-03-03 10:47:00,
2013-03-03 07:35:00,41.5,29.8,30.25,North,-999,-999.0,-999.0,24,0.00,,,0.00,meteohub,2013-03-03 13:35:00,
2013-03-03 07:41:00,42.1,30.4,30.25,ESE,107,0.0,-999.0,25,0.00,,,0.00,meteohub,2013-03-03 13:41:00,
2013-03-03 07:47:00,42.6,31.1,30.25,ESE,107,0.0,1.0,25,0.00,,,0.00,meteohub,2013-03-03 13:47:00,
2013-03-03 07:52:00,43.3,31.5,30.25,East,97,1.0,1.0,25,0.00,,,0.00,meteohub,2013-03-03 13:52:00,
2013-03-03 07:57:00,44.1,31.3,30.25,ENE,76,2.0,3.0,24,0.00,,,0.00,meteohub,2013-03-03 13:57:00,
2013-03-03 08:02:00,44.6,31.5,30.25,East,94,0.0,3.0,24,0.00,,,0.00,meteohub,2013-03-03 14:02:00,
2013-03-03 08:08:00,45.1,30.4,30.25,East,97,2.0,3.0,24,0.00,,,0.00,meteohub,2013-03-03 14:08:00,
2013-03-03 08:14:00,45.7,30.4,30.25,NE,56,0.0,3.0,25,0.00,,,0.00,meteohub,2013-03-03 14:14:00,
2013-03-03 08:20:00,46.2,30.7,30.25,ESE,103,2.0,3.0,25,0.00,,,0.00,meteohub,2013-03-03 14:20:00,
2013-03-03 08:26:00,46.8,31.3,30.25,East,93,0.0,3.0,25,0.00,,,0.00,meteohub,2013-03-03 14:26:00,
2013-03-03 08:32:00,47.5,31.1,30.25,East,100,1.0,3.0,24,0.00,,,0.00,meteohub,2013-03-03 14:32:00,
2013-03-03 08:37:00,48.2,31.3,30.25,NNE,20,1.0,3.0,24,0.00,,,0.00,meteohub,2013-03-03 14:37:00,
2013-03-03 08:42:00,48.7,30.4,30.25,ENE,71,3.0,4.0,24,0.00,,,0.00,meteohub,2013-03-03 14:42:00,
2013-03-03 08:47:00,49.8,30.4,30.25,ESE,103,0.0,5.0,25,0.00,,,0.00,meteohub,2013-03-03 14:47:00,
2013-03-03 08:52:00,50.7,31.5,30.25,ENE,78,0.0,5.0,26,0.00,,,0.00,meteohub,2013-03-03 14:52:00,
2013-03-03 08:57:00,51.3,31.1,30.25,East,92,3.0,5.0,25,0.00,,,0.00,meteohub,2013-03-03 14:57:00,
2013-03-03 09:02:00,51.4,31.5,30.25,NE,46,3.0,7.0,25,0.00,,,0.00,meteohub,2013-03-03 15:02:00,
2013-03-03 09:07:00,51.4,32.2,30.25,ESE,118,5.0,7.0,25,0.00,,,0.00,meteohub,2013-03-03 15:07:00,
2013-03-03 09:12:00,52.0,31.1,30.25,East,80,4.0,8.0,24,0.00,,,0.00,meteohub,2013-03-03 15:12:00,
2013-03-03 09:17:00,52.0,31.3,30.25,East,92,4.0,8.0,25,0.00,,,0.00,meteohub,2013-03-03 15:17:00,
2013-03-03 09:22:00,52.5,31.5,30.25,ESE,110,3.0,8.0,26,0.00,,,0.00,meteohub,2013-03-03 15:22:00,
2013-03-03 09:27:00,52.7,31.5,30.25,East,89,4.0,9.0,26,0.00,,,0.00,meteohub,2013-03-03 15:27:00,
2013-03-03 09:32:00,52.9,32.0,30.25,ENE,75,5.0,9.0,26,0.00,,,0.00,meteohub,2013-03-03 15:32:00,
2013-03-03 09:37:00,53.2,31.8,30.26,NE,53,3.0,10.0,25,0.00,,,0.00,meteohub,2013-03-03 15:37:00,
2013-03-03 09:42:00,53.8,32.2,30.25,ENE,63,2.0,10.0,25,0.00,,,0.00,meteohub,2013-03-03 15:42:00,
2013-03-03 09:47:00,54.3,31.3,30.25,SE,127,4.0,8.0,24,0.00,,,0.00,meteohub,2013-03-03 15:47:00,
2013-03-03 09:52:00,54.7,31.5,30.25,ENE,65,6.0,7.0,25,0.00,,,0.00,meteohub,2013-03-03 15:52:00,
2013-03-03 09:57:00,55.0,30.4,30.25,NE,43,3.0,10.0,25,0.00,,,0.00,meteohub,2013-03-03 15:57:00,
2013-03-03 10:02:00,55.2,31.5,30.25,ENE,63,7.0,10.0,26,0.00,,,0.00,meteohub,2013-03-03 16:02:00,
2013-03-03 10:07:00,55.2,32.0,30.25,East,94,7.0,10.0,26,0.00,,,0.00,meteohub,2013-03-03 16:07:00,
2013-03-03 10:12:00,55.8,31.5,30.25,ENE,58,2.0,9.0,25,0.00,,,0.00,meteohub,2013-03-03 16:12:00,
2013-03-03 10:17:00,55.9,32.0,30.24,East,92,2.0,9.0,25,0.00,,,0.00,meteohub,2013-03-03 16:17:00,
2013-03-03 10:22:00,56.5,31.5,30.24,East,98,6.0,8.0,24,0.00,,,0.00,meteohub,2013-03-03 16:22:00,
2013-03-03 10:27:00,56.5,30.6,30.24,ENE,64,4.0,8.0,24,0.00,,,0.00,meteohub,2013-03-03 16:27:00,
2013-03-03 10:32:00,56.7,30.6,30.23,ESE,103,4.0,8.0,25,0.00,,,0.00,meteohub,2013-03-03 16:32:00,
2013-03-03 10:37:00,57.0,31.5,30.23,East,84,6.0,10.0,26,0.00,,,0.00,meteohub,2013-03-03 16:37:00,
2013-03-03 10:42:00,57.2,30.9,30.23,NE,34,9.0,10.0,25,0.00,,,0.00,meteohub,2013-03-03 16:42:00,
2013-03-03 10:48:00,57.9,31.6,30.23,NE,50,3.0,11.0,25,0.00,,,0.00,meteohub,2013-03-03 16:48:00,
2013-03-03 10:54:00,58.3,31.5,30.23,SW,221,3.0,11.0,24,0.00,,,0.00,meteohub,2013-03-03 16:54:00,
2013-03-03 11:00:00,58.8,30.9,30.23,ESE,109,8.0,8.0,24,0.00,,,0.00,meteohub,2013-03-03 17:00:00,
2013-03-03 11:06:00,59.4,30.7,30.23,East,82,5.0,10.0,25,0.00,,,0.00,meteohub,2013-03-03 17:06:00,
2013-03-03 11:12:00,59.5,31.5,30.22,SE,143,2.0,10.0,26,0.00,,,0.00,meteohub,2013-03-03 17:12:00,
2013-03-03 11:17:00,60.1,30.9,30.22,NE,53,2.0,10.0,25,0.00,,,0.00,meteohub,2013-03-03 17:17:00,
2013-03-03 11:24:00,61.0,31.8,30.22,ESE,103,3.0,10.0,25,0.00,,,0.00,meteohub,2013-03-03 17:24:00,
2013-03-03 11:30:00,61.2,31.5,30.21,East,94,1.0,12.0,24,0.00,,,0.00,meteohub,2013-03-03 17:30:00,
2013-03-03 11:36:00,61.3,30.7,30.21,East,79,2.0,12.0,24,0.00,,,0.00,meteohub,2013-03-03 17:36:00,
2013-03-03 11:42:00,61.9,30.6,30.20,SE,138,10.0,10.0,25,0.00,,,0.00,meteohub,2013-03-03 17:42:00,
2013-03-03 11:47:00,62.1,31.5,30.20,East,94,2.0,15.0,26,0.00,,,0.00,meteohub,2013-03-03 17:47:00,
2013-03-03 11:52:00,62.2,30.9,30.20,ESE,110,5.0,15.0,25,0.00,,,0.00,meteohub,2013-03-03 17:52:00,
2013-03-03 11:57:00,62.2,31.5,30.19,NE,49,5.0,15.0,25,0.00,,,0.00,meteohub,2013-03-03 17:57:00,
2013-03-03 12:02:00,62.8,32.0,30.19,ENE,65,6.0,10.0,25,0.00,,,0.00,meteohub,2013-03-03 18:02:00,
2013-03-03 12:07:00,62.6,31.5,30.19,ESE,102,4.0,14.0,24,0.00,,,0.00,meteohub,2013-03-03 18:07:00,
2013-03-03 12:12:00,62.8,30.6,30.19,East,98,4.0,14.0,24,0.00,,,0.00,meteohub,2013-03-03 18:12:00,
2013-03-03 12:17:00,63.5,30.6,30.18,NE,45,4.0,14.0,25,0.00,,,0.00,meteohub,2013-03-03 18:17:00,
2013-03-03 12:22:00,63.5,31.5,30.18,NNE,25,1.0,15.0,26,0.00,,,0.00,meteohub,2013-03-03 18:22:00,
2013-03-03 12:27:00,64.2,31.6,30.18,ESE,102,7.0,15.0,26,0.00,,,0.00,meteohub,2013-03-03 18:27:00,
2013-03-03 12:32:00,64.2,31.5,30.17,ENE,63,6.0,15.0,25,0.00,,,0.00,meteohub,2013-03-03 18:32:00,
2013-03-03 12:37:00,64.4,32.0,30.17,East,101,6.0,14.0,25,0.00,,,0.00,meteohub,2013-03-03 18:37:00,
2013-03-03 12:42:00,64.2,30.9,30.17,ENE,70,6.0,14.0,24,0.00,,,0.00,meteohub,2013-03-03 18:42:00,
2013-03-03 12:48:00,65.5,30.7,30.16,East,86,2.0,13.0,25,0.00,,,0.00,meteohub,2013-03-03 18:48:00,
2013-03-03 12:54:00,66.6,31.5,30.16,ESE,102,3.0,13.0,26,0.00,,,0.00,meteohub,2013-03-03 18:54:00,
2013-03-03 13:00:00,65.8,32.2,30.15,SE,129,4.0,14.0,26,0.00,,,0.00,meteohub,2013-03-03 19:00:00,
2013-03-03 13:06:00,66.4,31.8,30.14,NE,40,7.0,15.0,25,0.00,,,0.00,meteohub,2013-03-03 19:06:00,
2013-03-03 13:12:00,67.1,32.4,30.14,South,174,4.0,15.0,25,0.00,,,0.00,meteohub,2013-03-03 19:12:00,
2013-03-03 13:17:00,66.6,31.1,30.14,East,100,4.0,14.0,24,0.00,,,0.00,meteohub,2013-03-03 19:17:00,
2013-03-03 13:22:00,66.6,31.1,30.13,East,96,11.0,15.0,25,0.00,,,0.00,meteohub,2013-03-03 19:22:00,
2013-03-03 13:27:00,66.6,31.5,30.13,NE,50,4.0,15.0,26,0.00,,,0.00,meteohub,2013-03-03 19:27:00,
2013-03-03 13:32:00,66.7,31.5,30.12,ESE,106,3.0,13.0,26,0.00,,,0.00,meteohub,2013-03-03 19:32:00,
2013-03-03 13:37:00,66.9,32.2,30.12,ENE,72,5.0,15.0,26,0.00,,,0.00,meteohub,2013-03-03 19:37:00,
2013-03-03 13:43:00,66.9,32.0,30.12,ESE,105,5.0,15.0,25,0.00,,,0.00,meteohub,2013-03-03 19:43:00,
2013-03-03 13:49:00,67.8,32.4,30.11,NNE,27,7.0,14.0,25,0.00,,,0.00,meteohub,2013-03-03 19:49:00,
2013-03-03 13:55:00,67.5,31.5,30.10,ESE,105,11.0,16.0,25,0.00,,,0.00,meteohub,2013-03-03 19:55:00,
2013-03-03 14:01:00,67.3,31.5,30.10,East,85,10.0,17.0,26,0.00,,,0.00,meteohub,2013-03-03 20:01:00,
2013-03-03 14:07:00,67.5,32.5,30.10,East,86,8.0,17.0,27,0.00,,,0.00,meteohub,2013-03-03 20:07:00,
2013-03-03 14:12:00,67.6,32.2,30.09,East,79,5.0,17.0,26,0.00,,,0.00,meteohub,2013-03-03 20:12:00,
2013-03-03 14:17:00,67.6,32.7,30.09,East,91,5.0,17.0,26,0.00,,,0.00,meteohub,2013-03-03 20:17:00,
2013-03-03 14:22:00,67.8,33.4,30.09,East,96,5.0,21.0,26,0.00,,,0.00,meteohub,2013-03-03 20:22:00,
2013-03-03 14:27:00,68.2,32.0,30.09,ESE,113,9.0,21.0,25,0.00,,,0.00,meteohub,2013-03-03 20:27:00,
2013-03-03 14:32:00,68.2,32.2,30.09,NE,43,7.0,14.0,26,0.00,,,0.00,meteohub,2013-03-03 20:32:00,
2013-03-03 14:37:00,68.7,32.4,30.09,East,91,9.0,14.0,27,0.00,,,0.00,meteohub,2013-03-03 20:37:00,
2013-03-03 14:42:00,68.2,32.5,30.09,ENE,63,7.0,14.0,27,0.00,,,0.00,meteohub,2013-03-03 20:42:00,
2013-03-03 14:47:00,68.0,33.1,30.09,SSE,156,5.0,15.0,27,0.00,,,0.00,meteohub,2013-03-03 20:47:00,
2013-03-03 14:52:00,67.8,32.7,30.08,ENE,63,6.0,19.0,26,0.00,,,0.00,meteohub,2013-03-03 20:52:00,
2013-03-03 14:57:00,69.1,33.4,30.08,SSE,166,2.0,19.0,26,0.00,,,0.00,meteohub,2013-03-03 20:57:00,
2013-03-03 15:02:00,68.7,33.1,30.08,SE,141,6.0,19.0,26,0.00,,,0.00,meteohub,2013-03-03 21:02:00,
2013-03-03 15:07:00,67.8,33.1,30.08,ENE,75,10.0,17.0,27,0.00,,,0.00,meteohub,2013-03-03 21:07:00,
2013-03-03 15:12:00,68.2,33.3,30.08,NNE,32,11.0,17.0,28,0.00,,,0.00,meteohub,2013-03-03 21:12:00,
2013-03-03 15:17:00,68.2,33.4,30.08,East,95,11.0,17.0,28,0.00,,,0.00,meteohub,2013-03-03 21:17:00,
2013-03-03 15:22:00,67.6,34.0,30.08,NE,51,4.0,16.0,28,0.00,,,0.00,meteohub,2013-03-03 21:22:00,
2013-03-03 15:27:00,67.8,33.6,30.08,East,85,9.0,16.0,27,0.00,,,0.00,meteohub,2013-03-03 21:27:00,
2013-03-03 15:32:00,68.4,34.3,30.08,NE,48,9.0,17.0,27,0.00,,,0.00,meteohub,2013-03-03 21:32:00,
2013-03-03 15:37:00,68.4,34.2,30.08,East,86,14.0,17.0,27,0.00,,,0.00,meteohub,2013-03-03 21:37:00,
2013-03-03 15:42:00,68.2,33.3,30.08,ENE,72,9.0,18.0,27,0.00,,,0.00,meteohub,2013-03-03 21:42:00,
2013-03-03 15:47:00,67.6,33.3,30.07,NE,41,2.0,18.0,28,0.00,,,0.00,meteohub,2013-03-03 21:47:00,
2013-03-03 15:52:00,67.6,34.2,30.07,East,84,12.0,18.0,29,0.00,,,0.00,meteohub,2013-03-03 21:52:00,
2013-03-03 15:57:00,67.5,34.7,30.07,NE,43,11.0,18.0,29,0.00,,,0.00,meteohub,2013-03-03 21:57:00,
2013-03-03 16:04:00,67.5,34.7,30.07,East,100,3.0,18.0,28,0.00,,,0.00,meteohub,2013-03-03 22:04:00,
2013-03-03 16:10:00,67.5,34.2,30.08,East,101,10.0,14.0,27,0.00,,,0.00,meteohub,2013-03-03 22:10:00,
2013-03-03 16:16:00,67.6,34.2,30.07,SSE,149,8.0,14.0,28,0.00,,,0.00,meteohub,2013-03-03 22:16:00,
2013-03-03 16:22:00,67.3,34.2,30.07,ESE,121,6.0,14.0,29,0.00,,,0.00,meteohub,2013-03-03 22:22:00,
2013-03-03 16:27:00,66.9,34.2,30.06,East,82,10.0,16.0,29,0.00,,,0.00,meteohub,2013-03-03 22:27:00,
2013-03-03 16:32:00,66.7,34.7,30.06,NW,323,8.0,18.0,29,0.00,,,0.00,meteohub,2013-03-03 22:32:00,
2013-03-03 16:37:00,66.9,35.4,30.06,NE,41,7.0,18.0,29,0.00,,,0.00,meteohub,2013-03-03 22:37:00,
2013-03-03 16:42:00,66.6,35.1,30.06,East,79,6.0,18.0,28,0.00,,,0.00,meteohub,2013-03-03 22:42:00,
2013-03-03 16:47:00,66.7,35.1,30.06,East,92,4.0,16.0,28,0.00,,,0.00,meteohub,2013-03-03 22:47:00,
2013-03-03 16:52:00,66.7,35.1,30.06,NNE,27,3.0,16.0,29,0.00,,,0.00,meteohub,2013-03-03 22:52:00,
2013-03-03 16:57:00,66.7,34.9,30.06,ENE,77,7.0,15.0,30,0.00,,,0.00,meteohub,2013-03-03 22:57:00,
2013-03-03 17:02:00,66.0,35.1,30.06,ESE,105,4.0,17.0,30,0.00,,,0.00,meteohub,2013-03-03 23:02:00,
2013-03-03 17:07:00,66.2,35.8,30.06,North,5,5.0,17.0,30,0.00,,,0.00,meteohub,2013-03-03 23:07:00,
2013-03-03 17:12:00,66.2,36.3,30.06,East,101,7.0,17.0,30,0.00,,,0.00,meteohub,2013-03-03 23:12:00,
2013-03-03 17:17:00,66.0,36.0,30.06,East,86,8.0,14.0,29,0.00,,,0.00,meteohub,2013-03-03 23:17:00,
2013-03-03 17:22:00,65.8,35.8,30.06,ENE,72,10.0,15.0,29,0.00,,,0.00,meteohub,2013-03-03 23:22:00,
2013-03-03 17:27:00,65.7,35.8,30.06,NE,50,6.0,15.0,30,0.00,,,0.00,meteohub,2013-03-03 23:27:00,
2013-03-03 17:32:00,65.1,35.8,30.06,NE,37,7.0,15.0,31,0.00,,,0.00,meteohub,2013-03-03 23:32:00,
2013-03-03 17:37:00,65.1,36.0,30.05,East,80,9.0,17.0,31,0.00,,,0.00,meteohub,2013-03-03 23:37:00,
2013-03-03 17:42:00,64.8,36.5,30.05,ESE,110,4.0,17.0,31,0.00,,,0.00,meteohub,2013-03-03 23:42:00,
2013-03-03 17:47:00,64.6,36.3,30.05,NE,54,6.0,18.0,30,0.00,,,0.00,meteohub,2013-03-03 23:47:00,
2013-03-03 17:52:00,64.4,36.9,30.04,East,94,7.0,19.0,30,0.00,,,0.00,meteohub,2013-03-03 23:52:00,
2013-03-03 17:57:00,64.2,36.5,30.05,North,4,11.0,19.0,30,0.00,,,0.00,meteohub,2013-03-03 23:57:00,
2013-03-03 18:02:00,63.9,35.6,30.04,NE,51,13.0,19.0,30,0.00,,,0.00,meteohub,2013-03-04 00:02:00,
2013-03-03 18:07:00,63.3,35.8,30.05,ESE,105,9.0,17.0,31,0.00,,,0.00,meteohub,2013-03-04 00:07:00,
2013-03-03 18:12:00,63.0,36.7,30.05,ENE,65,14.0,15.0,32,0.00,,,0.00,meteohub,2013-03-04 00:12:00,
2013-03-03 18:17:00,62.4,36.5,30.04,ESE,110,5.0,17.0,31,0.00,,,0.00,meteohub,2013-03-04 00:17:00,
2013-03-03 18:22:00,62.1,37.2,30.05,ESE,103,11.0,17.0,31,0.00,,,0.00,meteohub,2013-03-04 00:22:00,
2013-03-03 18:27:00,61.7,36.9,30.04,ESE,108,5.0,17.0,30,0.00,,,0.00,meteohub,2013-03-04 00:27:00,
2013-03-03 18:32:00,61.5,36.3,30.05,East,91,4.0,17.0,30,0.00,,,0.00,meteohub,2013-03-04 00:32:00,
2013-03-03 18:37:00,61.3,36.1,30.04,East,94,7.0,16.0,31,0.00,,,0.00,meteohub,2013-03-04 00:37:00,
2013-03-03 18:42:00,61.2,36.5,30.05,NE,54,4.0,15.0,32,0.00,,,0.00,meteohub,2013-03-04 00:42:00,
2013-03-03 18:47:00,61.0,36.9,30.04,ENE,59,8.0,17.0,32,0.00,,,0.00,meteohub,2013-03-04 00:47:00,
2013-03-03 18:52:00,60.6,37.6,30.04,ENE,74,7.0,17.0,32,0.00,,,0.00,meteohub,2013-03-04 00:52:00,
2013-03-03 18:59:00,60.3,37.8,30.04,ENE,74,8.0,13.0,31,0.00,,,0.00,meteohub,2013-03-04 00:59:00,
2013-03-03 19:05:00,60.1,37.4,30.04,East,92,4.0,15.0,31,0.00,,,0.00,meteohub,2013-03-04 01:05:00,
2013-03-03 19:11:00,59.7,37.0,30.04,East,95,11.0,15.0,32,0.00,,,0.00,meteohub,2013-03-04 01:11:00,
2013-03-03 19:17:00,59.5,37.4,30.04,ENE,71,6.0,15.0,33,0.00,,,0.00,meteohub,2013-03-04 01:17:00,
2013-03-03 19:22:00,59.5,37.6,30.04,NNE,13,10.0,13.0,33,0.00,,,0.00,meteohub,2013-03-04 01:22:00,
2013-03-03 19:27:00,59.2,37.4,30.05,East,98,6.0,13.0,32,0.00,,,0.00,meteohub,2013-03-04 01:27:00,
2013-03-03 19:32:00,59.0,38.1,30.05,East,91,3.0,13.0,32,0.00,,,0.00,meteohub,2013-03-04 01:32:00,
2013-03-03 19:37:00,58.8,37.8,30.04,ESE,117,10.0,13.0,31,0.00,,,0.00,meteohub,2013-03-04 01:37:00,
2013-03-03 19:42:00,58.6,37.9,30.04,NE,50,11.0,13.0,32,0.00,,,0.00,meteohub,2013-03-04 01:42:00,
2013-03-03 19:47:00,58.6,37.6,30.04,SE,124,6.0,13.0,33,0.00,,,0.00,meteohub,2013-03-04 01:47:00,
2013-03-03 19:52:00,58.5,38.1,30.03,NE,37,7.0,12.0,34,0.00,,,0.00,meteohub,2013-03-04 01:52:00,
2013-03-03 19:57:00,58.3,37.6,30.04,NNE,27,9.0,12.0,33,0.00,,,0.00,meteohub,2013-03-04 01:57:00,
2013-03-03 20:02:00,58.3,38.5,30.04,ESE,120,6.0,12.0,33,0.00,,,0.00,meteohub,2013-03-04 02:02:00,
2013-03-03 20:07:00,58.1,39.0,30.04,SE,135,6.0,12.0,33,0.00,,,0.00,meteohub,2013-03-04 02:07:00,
2013-03-03 20:12:00,57.9,38.3,30.04,ESE,115,4.0,11.0,32,0.00,,,0.00,meteohub,2013-03-04 02:12:00,
2013-03-03 20:18:00,57.7,37.9,30.04,ESE,111,4.0,9.0,33,0.00,,,0.00,meteohub,2013-03-04 02:18:00,
2013-03-03 20:24:00,57.7,38.1,30.04,ESE,110,7.0,9.0,34,0.00,,,0.00,meteohub,2013-03-04 02:24:00,
2013-03-03 20:30:00,57.6,38.5,30.04,ESE,102,4.0,10.0,34,0.00,,,0.00,meteohub,2013-03-04 02:30:00,
2013-03-03 20:36:00,57.6,39.4,30.04,ENE,60,6.0,10.0,34,0.00,,,0.00,meteohub,2013-03-04 02:36:00,
2013-03-03 20:42:00,57.4,39.4,30.03,SSE,149,4.0,10.0,33,0.00,,,0.00,meteohub,2013-03-04 02:42:00,
2013-03-03 20:48:00,57.4,38.8,30.03,NNE,28,7.0,10.0,33,0.00,,,0.00,meteohub,2013-03-04 02:48:00,
2013-03-03 20:54:00,57.4,38.3,30.03,East,97,5.0,10.0,34,0.00,,,0.00,meteohub,2013-03-04 02:54:00,
2013-03-03 21:00:00,57.4,38.8,30.03,ESE,104,5.0,11.0,35,0.00,,,0.00,meteohub,2013-03-04 03:00:00,
2013-03-03 21:06:00,57.0,39.6,30.03,ENE,58,6.0,11.0,35,0.00,,,0.00,meteohub,2013-03-04 03:06:00,
2013-03-03 21:12:00,57.0,39.7,30.03,ENE,71,3.0,10.0,34,0.00,,,0.00,meteohub,2013-03-04 03:12:00,
2013-03-03 21:17:00,57.0,40.3,30.03,East,85,6.0,11.0,34,0.00,,,0.00,meteohub,2013-03-04 03:17:00,
2013-03-03 21:22:00,57.0,39.7,30.03,NE,46,4.0,11.0,34,0.00,,,0.00,meteohub,2013-03-04 03:22:00,
2013-03-03 21:27:00,57.0,38.7,30.03,East,94,6.0,11.0,34,0.00,,,0.00,meteohub,2013-03-04 03:27:00,
2013-03-03 21:33:00,57.0,40.3,30.03,ESE,118,4.0,12.0,37,0.00,,,0.00,meteohub,2013-03-04 03:33:00,
2013-03-03 21:39:00,57.0,40.3,30.02,ESE,107,5.0,12.0,36,0.00,,,0.00,meteohub,2013-03-04 03:39:00,
2013-03-03 21:45:00,57.0,40.3,30.02,SE,124,7.0,10.0,35,0.00,,,0.00,meteohub,2013-03-04 03:45:00,
2013-03-03 21:51:00,57.0,39.9,30.02,NE,43,8.0,10.0,34,0.00,,,0.00,meteohub,2013-03-04 03:51:00,
2013-03-03 21:57:00,57.0,40.1,30.01,East,82,5.0,11.0,35,0.00,,,0.00,meteohub,2013-03-04 03:57:00,
2013-03-03 22:02:00,57.2,39.0,30.01,East,80,5.0,13.0,35,0.00,,,0.00,meteohub,2013-03-04 04:02:00,
2013-03-03 22:07:00,57.0,41.0,30.01,NE,34,5.0,13.0,38,0.00,,,0.00,meteohub,2013-03-04 04:07:00,
2013-03-03 22:12:00,57.2,40.8,30.01,ESE,105,8.0,13.0,37,0.00,,,0.00,meteohub,2013-03-04 04:12:00,
2013-03-03 22:17:00,57.2,41.4,30.01,ENE,70,5.0,12.0,37,0.00,,,0.00,meteohub,2013-03-04 04:17:00,
2013-03-03 22:22:00,57.4,41.5,30.01,East,86,6.0,12.0,36,0.00,,,0.00,meteohub,2013-03-04 04:22:00,
2013-03-03 22:27:00,57.4,40.8,30.01,ESE,122,6.0,12.0,35,0.00,,,0.00,meteohub,2013-03-04 04:27:00,
2013-03-03 22:32:00,57.4,39.7,30.01,ENE,77,6.0,14.0,35,0.00,,,0.00,meteohub,2013-03-04 04:32:00,
2013-03-03 22:37:00,57.6,41.0,30.00,North,349,4.0,14.0,38,0.00,,,0.00,meteohub,2013-03-04 04:37:00,
2013-03-03 22:42:00,57.6,41.7,30.00,East,84,7.0,12.0,39,0.00,,,0.00,meteohub,2013-03-04 04:42:00,
2013-03-03 22:47:00,57.6,41.5,30.00,NE,54,9.0,12.0,38,0.00,,,0.00,meteohub,2013-03-04 04:47:00,
2013-03-03 22:52:00,57.6,42.3,30.00,ESE,109,9.0,12.0,38,0.00,,,0.00,meteohub,2013-03-04 04:52:00,
2013-03-03 22:58:00,57.6,41.7,29.99,East,86,8.0,12.0,36,0.00,,,0.00,meteohub,2013-03-04 04:58:00,
2013-03-03 23:01:00,57.6,41.5,29.99,NE,53,8.0,12.0,36,0.00,,,0.00,meteohub,2013-03-04 05:01:00,
2013-03-03 23:02:00,57.6,41.4,29.99,ESE,102,4.0,12.0,36,0.00,,,0.00,meteohub,2013-03-04 05:02:00,
2013-03-03 23:07:00,57.6,40.3,29.99,East,87,8.0,12.0,36,0.00,,,0.00,meteohub,2013-03-04 05:07:00,
2013-03-03 23:12:00,57.6,42.3,29.99,ENE,76,6.0,12.0,40,0.00,,,0.00,meteohub,2013-03-04 05:12:00,
2013-03-03 23:17:00,57.7,42.3,29.99,NE,44,8.0,12.0,40,0.00,,,0.00,meteohub,2013-03-04 05:17:00,
2013-03-03 23:22:00,57.7,43.0,29.99,NE,37,8.0,10.0,40,0.00,,,0.00,meteohub,2013-03-04 05:22:00,
2013-03-03 23:27:00,57.9,43.2,29.98,ESE,105,8.0,10.0,39,0.00,,,0.00,meteohub,2013-03-04 05:27:00,
2013-03-03 23:32:00,57.9,43.0,29.98,East,98,6.0,11.0,38,0.00,,,0.00,meteohub,2013-03-04 05:32:00,
2013-03-03 23:37:00,57.9,41.4,29.98,ESE,120,7.0,12.0,36,0.00,,,0.00,meteohub,2013-03-04 05:37:00,
2013-03-03 23:43:00,57.9,40.3,29.98,East,85,6.0,12.0,36,0.00,,,0.00,meteohub,2013-03-04 05:43:00,
2013-03-03 23:49:00,57.9,44.1,29.98,ENE,70,7.0,12.0,43,0.00,,,0.00,meteohub,2013-03-04 05:49:00,
2013-03-03 23:55:00,57.9,43.7,29.98,East,90,9.0,12.0,42,0.00,,,0.00,meteohub,2013-03-04 05:55:00,